CZ-4C DEB, 44617

Orbit data source: Space-Track

CZ-4C DEB, 44617 is space debris in LEO originally from a launch on Tue, 10 Apr 2018 UTC launched from the Taiyaun Space Center, China (TSC). Debris objects in space refer to the collection of defunct objects orbiting the Earth. Examples of debris include non-operational satellites, rocket bodies, and fragments generated from explosions, collisions, or faulty payload assembly.

Loading next visibility...
CZ-4C DEB details
Identifier
44617, 2018-034J
Orbit
LEO
Last TLE update16 hours ago
Origin
Flag of CNCNSA (CN / PRC)
ManufacturerUnknown
MissionSpacecraft
Bus & MotorUnknown
MassUnknown
Launch date (UTC)
2018-04-10 (7 years ago)
Launch vehicleUnknown
Launch site
Taiyaun Space Center, China (TSC)
Object type
Payload
Rocket body
Debris
Shape & HBRUnknown
Radar Cross SectionSmall (<0.1 m²)

Expand to show TLE details & history

TLE from 16 hours ago
0 CZ-4C DEB
1 44617U 18034J   24360.95077069 -.00000065  00000-0  39074-4 0  9995
2 44617  63.4011  83.7258 0204829   6.2001 354.1486 13.40971170322063
Epoch: 2024-12-25T22:49Z
Definitive object data (Epoch: 2024-12-25T22:49:06.587Z)
Latitude-0.00003°
Longitude6.51118°
Altitude954.954 km
Speed7.449 km/s
True Right ascension05h 34m 54s
True Declination0° 00' 00"
Sunlit
Object was in full shadow at TLE epoch
Visualization TLE readout
Latitude47.70854°
Longitude37.97463°
Altitude1,010.54 km
Speed7.401 km/s
Apparent Right ascension05h 08m 37s
Apparent Declination10° 02' 56"
Sunlit
Object is in full shadow
Visualization observer readout
Local Sidereal Time14:33:30
Azimuth315.446° NNW
Elevation-28.476°
Doppler factor1
Orbital elements
Apogee altitude1,257.761 km
Perigee altitude951.229 km
Semi-major axis7,482.632 km
Eccentricity0.0204829
Inclination63.4011°
RAAN83.7258°
Arg. of periapsis6.2001°
True anomaly353.90306°
Mean anomaly354.1486°
Eccentric anomaly354.02647°
Mean motion3.35322 °/min
BSTAR0.000039074
Orbital period107.36 mins
Loading maneuver chart data...
Loading historical data...
Loading historical data...
Loading historical data...
Loading historical data...
Loading historical data...
Loading historical data...
Loading historical data...

CZ-4C DEB Visibility forecast

Observer location: undefined°, undefined

Span
Click to sort rows by Start time (UTC) header in descending order
Start Az.
Max El. time (UTC)
Max El. Az.
Max El.
End time (UTC)
End Az.
13 mins2024-12-26 15:26:32.774Z336.655° NNW2024-12-26 15:32:32.774Z37.387° NE35.878°2024-12-26 15:39:32.774Z118.616° SE
12 mins2024-12-26 17:18:32.774Z307.278° NW2024-12-26 17:23:32.774Z253.578° W33.252°2024-12-26 17:30:32.774Z180.624° SSW
11 mins2024-12-27 07:09:32.774Z198.219° SSW2024-12-27 07:14:32.774Z120.675° SE42.495°2024-12-27 07:20:32.774Z39.665° NE
9 mins2024-12-27 09:02:32.774Z277.126° WNW2024-12-27 09:05:32.774Z313.8° NW24.207°2024-12-27 09:11:32.774Z17.252° NNE
11 mins2024-12-27 14:42:32.774Z346.233° N2024-12-27 14:47:32.774Z39.967° NE28.385°2024-12-27 14:53:32.774Z100.742° ESE
|